Regional Weather Roundup
Issued by NWS

Home | Current Version | Previous Version | Text Only | Print | Product List | Glossary Off
Versions: 1 2 3 4 5 6 7 8 9 10 11 12 13 14 15 16 17 18 19 20 21 22 23 24 25 26 27 28 29 30 31 32 33 34 35 36 37 38 39 40 41 42 43 44 45 46 47 48 49 50

000
ASUS43 KOAX 210010
RWRNE

WEATHER ROUNDUP FOR NEBRASKA
NATIONAL WEATHER SERVICE OMAHA NE
700 PM CDT SUN AUG 20 2017

NOTES: SATELLITE DATA IS BEING USED TO AUGMENT CLOUD COVER ABOVE
       12000 FEET.
       "FAIR" INDICATES FEW OR NO CLOUDS BELOW 12,000 FEET WITH NO
       SIGNIFICANT WEATHER AND/OR OBSTRUCTIONS TO VISIBILITY.


NEZ001>004-019>022-054>056-210100-
NEBRASKA PANHANDLE

CITY           SKY/WX    TMP DP  RH WIND       PRES   REMARKS
SCOTTSBLUFF    SUNNY     86  57  37 E13       29.98F
6HR MIN TEMP:  81; 6HR MAX TEMP:  88;

ALLIANCE       SUNNY     81  57  43 E17       30.00S
6HR MIN TEMP:  78; 6HR MAX TEMP:  84;

CHADRON        SUNNY     84  53  34 E14       29.96F
6HR MIN TEMP:  77; 6HR MAX TEMP:  87;

GORDON         FAIR      82  53  37 E15       30.01S
6HR MIN TEMP:  81; 6HR MAX TEMP:  84;

KIMBALL        SUNNY     85  55  35 SE10      30.06S
SIDNEY         SUNNY     86  60  41 E16       30.03S
6HR MIN TEMP:  80; 6HR MAX TEMP:  90;

$$

NEZ057>060-069>072-079>082-210100-
SOUTHWEST NEBRASKA

CITY           SKY/WX    TMP DP  RH WIND       PRES   REMARKS
NORTH PLATTE   CLOUDY    85  69  58 NE12      29.94S
6HR MIN TEMP:  84; 6HR MAX TEMP:  89;

IMPERIAL       SUNNY     89  62  40 NE8       29.95S
6HR MIN TEMP:  84; 6HR MAX TEMP:  91;

LEXINGTON      MOSUNNY   84  74  71 NE6       29.92S HX  91
MCCOOK         SUNNY     92  67  43 NE8       29.90S HX  95
6HR MIN TEMP:  87; 6HR MAX TEMP:  95;

OGALLALA       CLOUDY    85  66  51 E12       29.97S
$$

NEZ005>010-023>029-035>040-094-210100-
NORTH CENTRAL NEBRASKA

CITY           SKY/WX    TMP DP  RH WIND       PRES   REMARKS
VALENTINE      SUNNY     82  55  39 NE16      29.99S
6HR MIN TEMP:  82; 6HR MAX TEMP:  88;

AINSWORTH      SUNNY     78  70  75 E9        29.99S
BROKEN BOW     PTSUNNY   83  70  64 E9        29.95F
6HR MIN TEMP:  79; 6HR MAX TEMP:  86;

O`NEILL        PTSUNNY   79  70  73 SE7       29.98R
ORD            MOSUNNY   81  70  69 NE7       29.93F
6HR MIN TEMP:  79; 6HR MAX TEMP:  84;

THEDFORD       MOSUNNY   83  67  56 E13       29.98F
$$

NEZ041-046>049-061>064-073>077-083>087-210100-
SOUTH CENTRAL NEBRASKA

CITY           SKY/WX    TMP DP  RH WIND       PRES   REMARKS
GRAND ISLAND   SUNNY     86  76  71 E9        29.91F HX  96
6HR MIN TEMP:  81; 6HR MAX TEMP:  88;

AURORA         SUNNY     85  77  77 E6        29.91S HX  95
HASTINGS       SUNNY     87  73  62 E10       29.91R HX  94
6HR MIN TEMP:  83; 6HR MAX TEMP:  89;

HEBRON         MOSUNNY   91  73  54 SE15      29.88S HX  98
HOLDREGE       CLOUDY    84  75  76 E6        29.90S HX  92
KEARNEY        SUNNY     84  78  82 E8        29.91F HX  95
YORK           SUNNY     82  77  83 E8        29.91S HX  91
$$

NEZ011>018-030>034-042>045-210100-
NORTHEAST NEBRASKA

CITY           SKY/WX    TMP DP  RH WIND       PRES   REMARKS
NORFOLK        CLOUDY    79  70  74 E8        29.95S
6HR MIN TEMP:  79; 6HR MAX TEMP:  84;

ALBION         CLOUDY    79  73  80 E6        29.96S
BLAIR          SUNNY     82  68  62 S8        29.95S
COLUMBUS       MOSUNNY   80  73  79 E8        29.94S
FREMONT        SUNNY     82  67  60 SE9       29.94S
TEKAMAH        SUNNY     82  69  64 E5        29.94S
6HR MIN TEMP:  79; 6HR MAX TEMP:  85;

WAYNE          CLOUDY    79  73  82 SE3       29.96S
$$

NEZ050>053-065>068-078-088>093-210100-
SOUTHEAST NEBRASKA

CITY           SKY/WX    TMP DP  RH WIND       PRES   REMARKS
LINCOLN        CLOUDY    85  72  65 SE15      29.92S HX  91
6HR MIN TEMP:  78; 6HR MAX TEMP:  87;

OMAHA EPPLEY   MOSUNNY   83  66  56 SE12      29.94S
6HR MIN TEMP:  77; 6HR MAX TEMP:  85; 6HR PCP: TRACE;

BEATRICE       MOSUNNY   86  73  64 SE15      29.91S HX  93
FALLS CITY     MOSUNNY   83  70  64 SE14G23   29.93F
6HR MIN TEMP:  80; 6HR MAX TEMP:  87;

NEBRASKA CITY  MOSUNNY   81  68  64 S10       29.94S
PLATTSMOUTH    CLOUDY    81  66  60 SE7       29.94S
$$

NEZ044-045-051>053-067-210100-
OMAHA AREA

CITY           SKY/WX    TMP DP  RH WIND       PRES   REMARKS
OMAHA EPPLEY   MOSUNNY   83  66  56 SE12      29.94S
6HR MIN TEMP:  77; 6HR MAX TEMP:  85; 6HR PCP: TRACE;

BLAIR          SUNNY     82  68  62 S8        29.95S
FREMONT        SUNNY     82  67  60 SE9       29.94S
MILLARD        SUNNY     85  69  60 SE9       29.94S
OFFUTT AFB     SUNNY     83  67  59 SE7       29.93S
PLATTSMOUTH    CLOUDY    81  66  60 SE7       29.94S
WAHOO          FAIR      82  69  64 SE10G17   29.93S
$$




USA.gov is the U.S. government's official web portal to all federal, state and local government web resources and services.